Find Starlink 2313

NORAD ID: 47986 Int'l Des: 2021-024 Owner: SPXS Country: US Constellation: starlink decayed
LEOCIRCULAR

Re-entered — Mar 2, 2022

3D地球を読み込み中...

About Starlink 2313

Starlink 2313 (NORAD 47986) is a starlink constellation satellite (v1.0) launched Mar 24, 2021 by SPXS of US. It re-entered the atmosphere on Mar 2, 2022. with a mass of 260.00 kg.

Starlink 2313について

説明を読み込み中...

高度履歴

Loading altitude history...

軌道要素

1 47986U 21024K 22061.12582495 .42284552 12483-4 13578-2 0 9990
2 47986 53.0036 290.4784 0007948 269.9893 178.9650 16.44270126 55167
Epoch: Mar 2, 2022 • Age: 37811 hours

現在のステータス

Position data unavailable
打ち上げ日 Mar 24, 2021
運用期間 5.2 years
落下予定日 Mar 2, 2022
タイプ internet

技術仕様

分類 Payload
質量 260.00 kg
乾燥質量 248.00 kg
総質量 260.00 kg
長さ 0.20 m
直径 2.80 m
スパン 9.00 m
形状 Box + pan
製造者 SPXS
バスタイプ Starlink
フェーズステータス Unknown Transfer Status
所有者/国 SPXS/US

Most Searched